STARLINK-34244, 65351

Orbit data source: Space-Track

STARLINK-34244, 65351 is a payload satellite owned by SpaceX/Seattle (US) in LEO that was launched on Thu, 28 Aug 2025 UTC via an FALCON 9 launch vehicle from the Air Force Eastern Test Range (AFETR). Payload-class satellites include a variety of spacecraft equipped with specific instruments for various scientific and technological missions. These include communications satellites like Starlink; space stations such as the ISS; scientific satellites like the Hubble; Earth observation satellites from companies like Planet Labs, Umbra, and HawkEye 360; GPS; miniature CubeSats for education and research; and military/defense satellites.

Loading next visibility...
Identifier
65351, 2025-190A
Orbit
LEO
Country
Flag of USUS
Related business
Manufacturer
SpaceX/Seattle
Mission
Operational Commercial Communications
Bus & Motor
STARLINK V2MO, Unknown motor
Mass
575 kg wet, ~530 kg dry
Launch date (UTC)
2025-08-28 (7 months ago)
Launch vehicle
FALCON 9
Launch site
Air Force Eastern Test Range (AFETR)
Object type
Payload
Rocket body
Debris
Shape & HBR
Box + 2 Pan, 17.7 m
Radar Cross Section
36.964 m², Large (>1 m²)

Expand to show TLE details & history
Last TLE update: 10 hours ago

TLE from 10 hours ago
0 STARLINK-34244
1 65351U 25190A   26094.16806065  .00045308  00000-0  15329-2 0  9992
2 65351  53.1591  50.0284 0001137  78.3047 281.8081 15.30192254 33653
Epoch: 2026-04-04T04:02Z
TLE epoch observation values (Epoch: 2026-04-04T04:02:00.440Z)
Latitude
-0.00003°
Longitude
157.03483°
Altitude
475.978 km
Speed
7.629 km/s
True Right ascension
03h 20m 06s
True Declination
0° 00' 00"
Sunlit
Object was in daylight at epoch
Visualization orbit readout
Latitude
Unknown
Longitude
Unknown
Altitude
Unknown
Speed
Unknown
Apparent Right ascension
Unknown
Apparent Declination
Unknown
Sunlit
N/A
Visualization observer readout
Local Sidereal Time
19:28:27
Azimuth
Unknown
Elevation
Unknown
Doppler factor
Unknown
Orbital elements
Apogee altitude
476.274 km
Perigee altitude
474.716 km
Semi-major axis
6,853.632 km
Eccentricity
0.00011
Inclination
53.1591°
RAAN
50.0284°
Arg. of periapsis
78.3047°
True anomaly
281.79535°
Mean anomaly
281.8081°
Eccentric anomaly
281.80172°
Mean motion
3.82527 °/min
Orbital period
94.11 mins
BSTAR
0.0015329
Loading maneuver chart data...
Computing Atmospheric mass density...
Loading historical data...
Loading historical data...
Loading historical data...
Loading historical data...
Loading historical data...
Loading historical data...
Loading historical data...

Documentation

Showing up to 5 results
|